2023/08/06 00:00:00,81.4,23.2
2023/08/06 00:10:00,82.7,23.0
2023/08/06 00:20:00,81.9,22.9
2023/08/06 00:30:00,80.8,22.9
2023/08/06 00:40:00,80.8,22.8
2023/08/06 00:50:00,---,22.6
2023/08/06 01:00:00, 0.0,22.6
2023/08/06 01:10:00, 0.0,22.8
2023/08/06 01:20:00,---,22.6
2023/08/06 01:30:00, 0.0,22.6
2023/08/06 01:40:00,---,22.6
2023/08/06 01:50:00, 1.6,22.6
2023/08/06 02:00:00,---,22.7
2023/08/06 02:10:00, 0.1,22.3
2023/08/06 02:20:00,---,22.3
2023/08/06 02:30:00,---,22.3
2023/08/06 02:40:00,79.3,22.3
2023/08/06 02:50:00,79.9,22.3
2023/08/06 03:00:00,80.2,22.4
2023/08/06 03:10:00,80.3,22.0
2023/08/06 03:20:00,80.5,21.9
2023/08/06 03:30:00,80.5,21.9
2023/08/06 03:40:00,80.2,21.8
2023/08/06 03:50:00,79.2,22.0
2023/08/06 04:00:00,78.9,21.7
2023/08/06 04:10:00,79.8,21.6
2023/08/06 04:20:00,79.8,21.6
2023/08/06 04:30:00,79.9,21.5
2023/08/06 04:40:00,80.0,21.4
2023/08/06 04:50:00,80.0,21.3
2023/08/06 05:00:00,80.0,21.3
2023/08/06 05:10:00,80.0,21.2
2023/08/06 05:20:00,80.1,21.0
2023/08/06 05:30:00,80.2,21.1
2023/08/06 05:40:00,80.3,21.3
2023/08/06 05:50:00,80.6,20.8
2023/08/06 06:00:00,80.7,21.2
2023/08/06 06:10:00,80.8,21.4
2023/08/06 06:20:00,80.9,21.2
2023/08/06 06:30:00,81.4,21.5
2023/08/06 06:40:00,---,21.6
2023/08/06 06:50:00,81.1,21.5
2023/08/06 07:00:00,81.0,21.9
2023/08/06 07:10:00,80.8,22.2
2023/08/06 07:20:00,80.3,22.3
2023/08/06 07:30:00,80.0,22.4
2023/08/06 07:40:00,80.3,22.8
2023/08/06 07:50:00,---,24.3
2023/08/06 08:00:00,82.2,28.2
2023/08/06 08:10:00,83.2,29.6
2023/08/06 08:20:00,65.0,30.0
2023/08/06 08:30:00,---,30.4
2023/08/06 08:40:00,63.6,30.2
2023/08/06 08:50:00,84.9,29.2
2023/08/06 09:00:00,82.3,28.4
2023/08/06 09:10:00,50.4,27.9
2023/08/06 09:20:00,---,28.3
2023/08/06 09:30:00,---,29.1
2023/08/06 09:40:00,---,30.4
2023/08/06 09:50:00,---,29.8
2023/08/06 10:00:00,56.7,30.5
2023/08/06 10:10:00, 0.0,31.5
2023/08/06 10:20:00,28.1,31.2
2023/08/06 10:30:00,42.1,31.1
2023/08/06 10:40:00,58.8,31.5
2023/08/06 10:50:00,65.3,31.9
2023/08/06 11:00:00,55.8,33.5
2023/08/06 11:10:00,---,32.8
2023/08/06 11:20:00,---,33.5
2023/08/06 11:30:00,---,33.8
2023/08/06 11:40:00, 0.0,33.9
2023/08/06 11:50:00, 0.0,34.7
2023/08/06 12:00:00,---,34.0
2023/08/06 12:10:00, 0.0,34.5
2023/08/06 12:20:00, 0.0,34.1
2023/08/06 12:30:00,83.1,34.3
2023/08/06 12:40:00,82.9,35.2
2023/08/06 12:50:00,82.4,34.5
2023/08/06 13:00:00,82.0,34.4
2023/08/06 13:10:00,81.5,32.7
2023/08/06 13:20:00,82.7,34.8
2023/08/06 13:30:00,81.8,33.3
2023/08/06 13:40:00,---,34.9
2023/08/06 13:50:00,81.6,33.6
2023/08/06 14:00:00,81.8,32.6
2023/08/06 14:10:00,81.4,31.2
2023/08/06 14:20:00,81.2,30.4
2023/08/06 14:30:00,47.0,31.1
2023/08/06 14:40:00, 0.0,30.9
2023/08/06 14:50:00, 0.0,31.0
2023/08/06 15:00:00, 0.0,31.0
2023/08/06 15:10:00, 0.0,29.3
2023/08/06 15:20:00, 0.0,29.9
2023/08/06 15:30:00, 0.0,29.7
2023/08/06 15:40:00, 0.0,29.5
2023/08/06 15:50:00, 0.0,28.7
2023/08/06 16:00:00, 0.0,31.0
2023/08/06 16:10:00,---,32.3
2023/08/06 16:20:00, 0.0,32.9
2023/08/06 16:30:00, 0.0,31.3
2023/08/06 16:40:00, 0.0,30.8
2023/08/06 16:50:00, 0.0,30.2
2023/08/06 17:00:00, 0.0,28.7
2023/08/06 17:10:00, 0.0,28.2
2023/08/06 17:20:00, 0.0,28.0
2023/08/06 17:30:00, 0.0,27.6
2023/08/06 17:40:00, 0.0,27.1
2023/08/06 17:50:00, 0.0,27.0
2023/08/06 18:00:00, 0.0,26.8
2023/08/06 18:10:00, 0.0,26.2
2023/08/06 18:20:00, 0.0,26.1
2023/08/06 18:30:00, 0.0,26.1
2023/08/06 18:40:00, 0.0,26.1
2023/08/06 18:50:00, 0.0,25.6
2023/08/06 19:00:00, 0.0,25.1
2023/08/06 19:10:00, 0.0,25.0
2023/08/06 19:20:00, 0.0,24.6
2023/08/06 19:30:00, 0.0,24.5
2023/08/06 19:40:00, 0.0,24.3
2023/08/06 19:50:00, 0.0,24.0
2023/08/06 20:00:00, 0.0,24.0
2023/08/06 20:10:00, 0.0,23.6
2023/08/06 20:20:00, 0.0,23.7
2023/08/06 20:30:00, 0.0,23.7
2023/08/06 20:40:00, 0.0,23.5
2023/08/06 20:50:00, 0.0,23.3
2023/08/06 21:00:00, 0.0,23.3
2023/08/06 21:10:00, 0.0,23.3
2023/08/06 21:20:00, 0.0,23.3
2023/08/06 21:30:00, 0.0,23.4
2023/08/06 21:40:00, 0.0,23.4
2023/08/06 21:50:00, 0.0,23.4
2023/08/06 22:00:00, 0.0,23.7
2023/08/06 22:10:00, 0.0,23.3
2023/08/06 22:20:00, 0.0,23.3
2023/08/06 22:30:00, 0.0,23.4
2023/08/06 22:40:00, 0.0,23.2
2023/08/06 22:50:00,18.7,23.0
2023/08/06 23:00:00, 0.0,22.9
2023/08/06 23:10:00, 0.0,22.8
2023/08/06 23:20:00,62.4,22.8
2023/08/06 23:30:00,64.9,23.0
2023/08/06 23:40:00, 0.0,22.5
2023/08/06 23:50:00, 0.0,22.5
